Home   Weather   Monza   Past weeks

Flag for Italy Past Weather in Monza, Italy — Yesterday and Last 2 Weeks

Now
46 °F

Scattered clouds.


Feels Like: 42 °F
Forecast: 40 / 63 °F
Wind: 9 mph from North

Location: Milan / Linate

Current Time: Apr 28, 2017 at 8:21:07 am

Latest Report: Apr 28, 2017 at 7:50 am


Visibility: N/A

Pressure: 29.62 "Hg

Humidity: 87%

Dew Point: 43 °F

Location of MonzaLocation

Past Weather in Monza — Graph

°F

Monza Temperature Yesterday

Maximum temperature yesterday: 59 °F (at 11:20 am)
Minimum temperature yesterday: 52 °F (at 12:20 am)
Average temperature yesterday: 55 °F

High & Low Weather Summary for the Past Weeks

 TemperatureHumidityPressure
High77 °F (Apr 13, 4:50 pm)100% (Apr 16, 3:50 am)30.39 "Hg (Apr 16, 3:50 am)
Low34 °F (Apr 20, 6:20 am)11% (Apr 18, 3:50 pm)29.53 "Hg (Apr 28, 4:20 am)
Average58 °F56%29.96 "Hg
* Reported Apr 13 7:20 am — Apr 28 7:20 am, Monza, Weather by CustomWeather, © 2017

Note: Actual official high and low records may vary slightly from our data, if they occured in-between our weather recording intervals... More about our weather records

Advertising

Monza Weather History for the Previous 24 Hours

Scroll right to see more
 ConditionsComfort  
Time TempWeatherWind HumidityBarometerVisibility
7:20 am
Fri, Apr 28
46 °FScattered clouds.8 mph87%29.62 "HgN/A
6:50 am46 °FBroken clouds.6 mph93%29.59 "Hg6 mi
6:20 am48 °FBroken clouds.7 mph94%29.56 "Hg4 mi
5:50 am50 °FThunderstorms. Partly cloudy.3 mph88%29.56 "Hg4 mi
5:20 am50 °FThunderstorms. Partly cloudy.5 mph88%29.56 "Hg4 mi
4:50 am52 °FThunderstorms. Partly cloudy.2 mph100%29.53 "Hg4 mi
4:20 am54 °FPassing clouds.6 mph94%29.53 "Hg5 mi
3:50 am52 °FPassing clouds.6 mph100%29.56 "Hg5 mi
3:20 am52 °FPassing clouds.3 mph100%29.56 "Hg5 mi
2:50 am52 °FPassing clouds.7 mph100%29.56 "Hg5 mi
2:20 am52 °FPassing clouds.5 mph100%29.59 "Hg5 mi
1:50 am52 °FPassing clouds.3 mph100%29.62 "Hg5 mi
1:20 am54 °FPassing clouds.7 mph94%29.62 "Hg5 mi
12:50 am54 °FPassing clouds.5 mph94%29.62 "Hg5 mi
12:20 am54 °FPassing clouds.1 mph88%29.62 "Hg5 mi
11:50 pm
Thu, Apr 27
54 °FPassing clouds.1 mph94%29.62 "Hg5 mi
11:20 pm54 °FPartly cloudy.1 mph94%29.65 "Hg4 mi
10:50 pm54 °FPartly cloudy.2 mph100%29.65 "Hg4 mi
10:20 pm54 °FPartly cloudy.No wind100%29.65 "Hg4 mi
9:50 pm54 °FLight rain. Passing clouds.No wind100%29.65 "Hg4 mi
9:20 pm55 °FPartly cloudy.2 mph94%29.65 "Hg4 mi
8:50 pm55 °FPartly cloudy.1 mph94%29.65 "Hg6 mi
8:20 pm55 °FLight rain. Broken clouds.5 mph94%29.65 "Hg4 mi
7:50 pm55 °FLight rain. Broken clouds.6 mph94%29.65 "Hg4 mi
7:20 pm55 °FLight rain. Broken clouds.5 mph94%29.65 "Hg4 mi
6:50 pm55 °FRain. Broken clouds.6 mph94%29.68 "Hg2 mi
6:20 pm55 °FRain. Broken clouds.7 mph100%29.68 "Hg2 mi
5:50 pm55 °FRain. Broken clouds.5 mph100%29.68 "Hg3 mi
5:20 pm55 °FRain. Broken clouds.6 mph100%29.71 "Hg3 mi
4:50 pm57 °FRain. Broken clouds.3 mph94%29.71 "Hg3 mi
4:20 pm57 °FRain. Broken clouds.5 mph94%29.71 "Hg2 mi
3:50 pm57 °FRain. Broken clouds.3 mph94%29.71 "Hg3 mi
3:20 pm57 °FRain. Broken clouds.3 mph100%29.74 "Hg2 mi
2:50 pm59 °FLight rain. Partly sunny.1 mph82%29.74 "Hg4 mi
2:20 pm59 °FLight rain. Partly sunny.2 mph88%29.74 "Hg4 mi
1:50 pm59 °FLight rain. Partly sunny.3 mph82%29.74 "Hg4 mi
1:20 pm59 °FPartly sunny.3 mph82%29.74 "HgN/A
12:50 pm59 °FBroken clouds.3 mph82%29.74 "HgN/A
12:20 pm59 °FBroken clouds.2 mph88%29.74 "HgN/A
11:50 am59 °FPartly sunny.2 mph88%29.77 "Hg6 mi
11:20 am59 °FPartly sunny.2 mph88%29.77 "Hg6 mi
10:50 am57 °FPartly sunny.2 mph88%29.77 "HgN/A
10:20 am57 °FPartly sunny.3 mph94%29.74 "HgN/A
9:50 am55 °FPartly sunny.3 mph94%29.74 "HgN/A
9:20 am55 °FPartly sunny.5 mph94%29.74 "HgN/A
8:50 am54 °FPartly sunny.2 mph100%29.74 "Hg6 mi
8:20 am54 °FLight rain. Broken clouds.2 mph94%29.74 "Hg4 mi
Weather by CustomWeather, © 2017

See weather overviewHow to use our weather pages